Regional Weather Roundup
Issued by NWS Upton, NY

Current Version | Previous Version | Graphics & Text | Print | Product List | Glossary Off
Versions: 1 2 3 4 5 6 7 8 9 10 11 12 13 14 15 16 17 18 19 20 21 22 23 24 25 26 27 28 29 30 31 32 33 34 35 36 37 38 39 40 41 42 43 44 45 46 47 48 49 50

000
ASUS41 KOKX 251205
RWROKX

REGIONAL WEATHER ROUNDUP
NATIONAL WEATHER SERVICE NEW YORK NY
800 AM EDT FRI JUL 25 2014

NOTE: "FAIR" INDICATES FEW OR NO CLOUDS BELOW 12,000 FEET WITH NO
SIGNIFICANT WEATHER AND/OR OBSTRUCTIONS TO VISIBILITY.

NYZ071-072-176-178-NJZ106-104-251300-
NEW YORK CITY METRO AREA


CITY           SKY/WX    TMP DP  RH WIND       PRES   REMARKS
CENTRAL PARK   SUNNY     69  53  56 VRB6      30.04R
LAGUARDIA APRT MOSUNNY   70  54  56 N7        30.00R
KENNEDY INTL   MOSUNNY   72  54  53 N10       30.01R
NEWARK/LIBERTY MOSUNNY   69  55  60 N13       30.01R
BRNX BOT. GARD   N/A     68  54  60 NW7       30.04R
TETERBORO      SUNNY     71  53  52 VRB6      30.01R
$$

NYZ177-179-078>081-251300-
LONG ISLAND NEW YORK

CITY           SKY/WX    TMP DP  RH WIND       PRES   REMARKS
FARMINGDALE    SUNNY     69  57  65 N10       29.99R
ISLIP          MOSUNNY   72  57  59 N10       29.98R
SHIRLEY        SUNNY     70  57  63 N8        29.99R
WESTHAMPTON    SUNNY     71  56  58 N10       30.00R
MONTAUK POINT    N/A     68  55  63 N10       29.98S
$$

NYZ052-065-067-251300-
HUDSON VALLEY

CITY           SKY/WX    TMP DP  RH WIND       PRES   REMARKS
WHITE PLAINS   MOSUNNY   66  53  63 N12       30.01R
NEWBURGH       SUNNY     61  57  88 W7        30.05R
MONTGOMERY     SUNNY     60  55  83 CALM      30.05R
POUGHKEEPSIE   SUNNY     62  55  77 CALM      30.03R
ALBANY         SUNNY     61  53  75 CALM      30.03R
$$

NJZ001-105-106-008-010-013-015-019>022-104-251300-
NEW JERSEY

CITY           SKY/WX    TMP DP  RH WIND       PRES   REMARKS
NEWARK/LIBERTY MOSUNNY   69  55  60 N13       30.01R
TETERBORO      SUNNY     71  53  52 VRB6      30.01R
CALDWELL       SUNNY     65  54  67 VRB3      30.03R
MORRISTOWN     MOSUNNY   66  57  72 NE3       30.03R
SOMERVILLE     MOSUNNY   66  55  67 CALM      30.01R
LINDEN         FAIR      71  55  56 NE7       30.04R
SUSSEX         SUNNY     61  56  83 CALM      30.05R
ANDOVER          N/A     60  54  80 CALM      30.06R
TRENTON        MOSUNNY   63  54  72 NW5       30.02R
MILLVILLE      SUNNY     66  56  70 NW7       30.02R
ATLANTIC CITY  SUNNY     66  56  70 N8        30.01R
WRIGHTSTOWN    SUNNY     65  55  70 NW8       30.00R
TOMS RIVER     MOSUNNY   64  55  72 CALM      30.01R
BELMAR         SUNNY     70  55  60 N6        30.01R
$$

PAZ047>061-062-071-251300-
EASTERN PENNSYLVANIA

CITY           SKY/WX    TMP DP  RH WIND       PRES   REMARKS
PHILADELPHIA   MOSUNNY   67  52  58 N8        30.03R
ALLENTOWN      SUNNY     62  53  72 NW3       30.05R
SCRANTON       SUNNY     57  50  77 CALM      30.08R
$$

CTZ002-004>006-009-010-012-RIZ004-006-007-MAZ004-011-015-251300-
SOUTHERN NEW ENGLAND
 IN CT

CITY           SKY/WX    TMP DP  RH WIND       PRES   REMARKS
BRADLEY INTL   SUNNY     64  55  72 CALM      29.99R
HARTFORD       SUNNY     65  54  67 NE3       29.99R
DANBURY        SUNNY     65  53  65 W5        30.03R
WTRBRY/OXFORD  SUNNY     63  54  72 N6        30.03R
BRIDGEPORT     SUNNY     69  55  60 N8        29.99R
MERIDEN        SUNNY     65  55  70 NW3       30.00R
NEW HAVEN      SUNNY     69  55  60 N13       29.99R
CHESTER        FAIR      66  54  63 N8        30.00R
GROTON         SUNNY     66  55  67 N8        29.97R
WILLIMANTIC    SUNNY     64  54  69 N6        29.99R

 IN RI

CITY           SKY/WX    TMP DP  RH WIND       PRES   REMARKS
PROVIDENCE     MOSUNNY   66  52  60 N10       29.97R
BLOCK ISLAND   SUNNY     66  55  68 N9        29.97S
WESTERLY       SUNNY     68  54  60 N9        29.97S

 IN MA

CITY           SKY/WX    TMP DP  RH WIND       PRES   REMARKS
BOSTON         MOSUNNY   67  52  58 NW8       29.96S
WORCESTER      SUNNY     62  50  64 N8        30.00R
WESTFIELD      SUNNY     63  54  72 N5        30.00R
PROVINCETOWN   SUNNY     64  63  94 N9        29.95R
NANTUCKET      CLOUDY    67  60  78 N7        29.94R
$$

ANZ330-335-338-340-345-350-353-355-251300-
COASTAL MARINE OBSERVATIONS


STATION/POSITION TIME  SKY/WX   TEMP    WIND        PRES    VSBY  WAVE
                                AIR SEA DIR/SP/G                  HT/PER
                 (UTC)          (F)     (DEG/KT/KT) (MB)    (MI)  (FT/S)
NY HARB ENTRANCE NOT AVBL
4S FIRE IS       NOT AVBL
23SW MTP         1200            71 71              1014.0          2/ 9
HUDSON CANYON    1200            72 73   20/ 12/ 14 1013.9          2/ 7
EXECUTION ROCKS  1200            68 71  340/  8/ 12   N/A
WESTERN LI SOUND 1200            67     360/  4/  6   N/A           1
CENTRAL LI SOUND 1100            67 72   30/  8/ 12   N/A           1/ 2
EASTERN LI SOUND 1100            71 67   20/  8/ 10   N/A
ROBBINS REEF     1200            68     350/  8/  9   N/A
$$


>>>>>>>>>>>>>>>>>>>>>>>>>>>> KEY <<<<<<<<<<<<<<<<<<<<<<<<<<<
>                                                          <
>     SKY/WX - SKY CONDITION/PRESENT WEATHER               <
>     TMP    - TEMPERATURE IN FAHRENHEIT                   <
>     DP     - DEWPOINT IN FAHRENHEIT                      <
>     RH     - RELATIVE HUMIDITY IN PERCENT                <
>     WIND   - DIRECTION AND SPEED IN MPH                  <
>     PRES   - MEAN SEA LEVEL PRESSURE IN INCHES OF HG     <
>     WCI    - WIND CHILL INDEX                            <
>     VSB    - VISIBILITY IN MILES                         <
>     HX     - HEAT INDEX                                  <
>     TC     - TEMPERATURE IN CELSIUS                      <
>     VRB    - VARIABLE WIND DIRECTION                     <
>                                                          <
>>>>>>>>>>>>>>>>>>>>>>>>>>>> KEY <<<<<<<<<<<<<<<<<<<<<<<<<<<





USA.gov is the U.S. government's official web portal to all federal, state and local government web resources and services.